GW4240 Weather Reports


Display with metric or nautical units.
time (UTC)temp
F
wind
direction
speed
MPH
gust
MPH
rain 1hr
in
rain 24hr
in
rain mn
in
humidity
%
barometer
mb
20260831123047 51 0 0.0 0.0 0.00 0.00 0.00 96 1015.1
20260831122527 51 0 0.0 0.0 0.00 0.00 0.00 96 1015.0
20260831122027 51 0 0.0 0.0 0.00 0.00 0.00 95 1015.0
20260831121558 51 0 0.0 0.0 0.00 0.00 0.00 96 1015.1
20260831121026 51 0 0.0 0.0 0.00 0.00 0.00 96 1015.1
20260831120528 51 0 0.0 0.0 0.00 0.00 0.00 96 1015.1
20260831120054 51 0 0.0 0.0 0.00 0.00 0.00 96 1015.1
20260831115525 51 0 0.0 0.0 0.00 0.00 0.00 96 1015.0
20260831115025 51 0 0.0 0.0 0.00 0.00 0.00 96 1015.1
20260831114552 51 0 0.0 0.0 0.00 0.00 0.00 96 1015.3
20260831114025 51 0 0.0 0.0 0.00 0.00 0.00 96 1015.2
20260831113533 51 0 0.0 0.0 0.00 0.00 0.00 96 1015.2
20260831113048 51 0 0.0 0.0 0.00 0.00 0.00 95 1015.4
20260831112525 51 0 0.0 0.0 0.00 0.00 0.00 95 1015.4
20260831112026 51 0 0.0 0.0 0.00 0.00 0.00 96 1015.4
20260831111557 52 0 0.0 0.0 0.00 0.00 0.00 95 1015.4
20260831111027 52 0 0.0 0.0 0.00 0.00 0.00 96 1015.5
20260831110527 52 0 0.0 0.0 0.00 0.00 0.00 95 1015.5
20260831110059 52 0 0.0 0.0 0.00 0.00 0.00 95 1015.5
20260831105526 52 0 0.0 0.0 0.00 0.00 0.00 95 1015.6
20260831105025 52 0 0.0 0.0 0.00 0.00 0.00 95 1015.7
20260831104546 52 0 0.0 0.0 0.00 0.00 0.00 95 1015.7
20260831104026 52 0 0.0 0.0 0.00 0.00 0.00 95 1015.6
20260831103525 52 0 0.0 0.0 0.00 0.00 0.00 95 1015.7
20260831103047 52 0 0.0 0.0 0.00 0.00 0.00 95 1015.6
20260831102525 52 0 0.0 0.0 0.00 0.00 0.00 95 1015.6
20260831102027 52 0 0.0 0.0 0.00 0.00 0.00 95 1015.7
20260831101555 52 0 0.0 0.0 0.00 0.00 0.00 95 1015.7
20260831101025 52 0 0.0 0.0 0.00 0.00 0.00 95 1015.8
20260831100526 52 0 0.0 0.0 0.00 0.00 0.00 95 1015.9
20260831100050 53 0 0.0 0.0 0.00 0.00 0.00 95 1015.9
20260831095525 53 0 0.0 1.0 0.00 0.00 0.00 95 1016.0
20260831095027 52 0 0.0 2.0 0.00 0.00 0.00 94 1016.1
20260831094546 53 322 1.0 2.0 0.00 0.00 0.00 95 1016.1
20260831094028 53 305 0.0 1.0 0.00 0.00 0.00 95 1016.1
20260831093528 53 305 0.0 1.0 0.00 0.00 0.00 94 1016.2
20260831093045 53 0 0.0 0.0 0.00 0.00 0.00 95 1016.2
20260831092529 53 0 0.0 0.0 0.00 0.00 0.00 95 1016.2
20260831092025 53 0 0.0 0.0 0.00 0.00 0.00 94 1016.4
20260831091551 53 0 0.0 0.0 0.00 0.00 0.00 95 1016.4
20260831091026 53 0 0.0 0.0 0.00 0.00 0.00 95 1016.4
20260831090525 53 0 0.0 1.0 0.00 0.00 0.00 94 1016.5
20260831090052 53 0 0.0 1.0 0.00 0.00 0.00 94 1016.6
20260831085526 52 302 0.0 1.0 0.00 0.00 0.00 94 1016.5
20260831085027 52 0 0.0 1.0 0.00 0.00 0.00 94 1016.6
20260831084550 53 0 0.0 2.0 0.00 0.00 0.00 94 1016.6
20260831084029 53 314 0.0 2.0 0.00 0.00 0.00 94 1016.6
20260831083526 53 314 1.0 2.0 0.00 0.00 0.00 94 1016.7
20260831083055 53 314 1.0 2.0 0.00 0.00 0.00 94 1016.8
20260831082525 53 295 0.0 1.0 0.00 0.00 0.00 94 1016.9
20260831082024 53 0 0.0 1.0 0.00 0.00 0.00 94 1016.9
20260831081551 53 292 1.0 2.0 0.00 0.00 0.00 93 1017.0
20260831081025 53 292 1.0 2.0 0.00 0.00 0.00 93 1016.9
20260831080528 53 292 1.0 2.0 0.00 0.00 0.00 93 1016.9
20260831080049 53 288 1.0 2.0 0.00 0.00 0.00 93 1016.9
20260831075524 53 285 1.0 2.0 0.00 0.00 0.00 93 1017.1
20260831075029 53 0 0.0 0.0 0.00 0.00 0.00 93 1017.0
20260831074550 54 0 0.0 0.0 0.00 0.00 0.00 93 1017.1
20260831074025 54 0 0.0 0.0 0.00 0.00 0.00 93 1017.2
20260831073525 54 0 0.0 0.0 0.00 0.00 0.00 93 1017.2
20260831073049 54 0 0.0 0.0 0.00 0.00 0.00 93 1017.2
20260831072525 54 0 0.0 0.0 0.00 0.00 0.00 93 1017.2
20260831072025 54 0 0.0 0.0 0.00 0.00 0.00 93 1017.3
20260831071548 54 0 0.0 0.0 0.00 0.00 0.00 93 1017.4
20260831071025 54 0 0.0 0.0 0.00 0.00 0.00 92 1017.4
20260831070524 54 0 0.0 0.0 0.00 0.00 0.00 93 1017.4
20260831070050 54 0 0.0 0.0 0.00 0.00 0.00 92 1017.3
20260831065527 54 0 0.0 0.0 0.00 0.00 0.00 92 1017.3
20260831065025 54 0 0.0 0.0 0.00 0.00 0.00 92 1017.5
20260831064607 55 0 0.0 0.0 0.00 0.00 0.00 92 1017.3
20260831064024 55 0 0.0 0.0 0.00 0.00 0.00 92 1017.4
20260831063526 55 0 0.0 0.0 0.00 0.00 0.00 92 1017.5
20260831063048 55 0 0.0 0.0 0.00 0.00 0.00 92 1017.5
20260831062526 55 0 0.0 0.0 0.00 0.00 0.00 91 1017.6
20260831062027 55 0 0.0 0.0 0.00 0.00 0.00 91 1017.7
20260831061548 55 0 0.0 1.0 0.00 0.00 0.00 90 1017.7
20260831061029 55 0 0.0 1.0 0.00 0.00 0.00 90 1017.8
20260831060529 55 288 0.0 1.0 0.00 0.00 0.00 91 1017.8
20260831060049 55 287 1.0 2.0 0.00 0.00 0.00 91 1017.7
20260831055526 56 288 1.0 2.0 0.00 0.00 0.00 90 1017.8
20260831055029 56 288 0.0 2.0 0.00 0.00 0.00 90 1017.8
20260831054555 56 0 0.0 0.0 0.00 0.00 0.00 90 1017.8
20260831054026 56 0 0.0 0.0 0.00 0.00 0.00 90 1017.9
20260831053526 56 0 0.0 0.0 0.00 0.00 0.00 90 1018.0
20260831053050 56 0 0.0 1.0 0.00 0.00 0.00 89 1018.0
20260831052523 57 296 0.0 2.0 0.00 0.00 0.00 89 1018.0
20260831052027 57 296 1.0 2.0 0.00 0.00 0.00 88 1018.0
20260831051546 57 316 1.0 2.0 0.00 0.00 0.00 89 1018.1
20260831051025 57 316 1.0 2.0 0.00 0.00 0.00 88 1018.0
20260831050527 58 290 0.0 1.0 0.00 0.00 0.00 87 1018.2
20260831050055 58 290 1.0 1.0 0.00 0.00 0.00 87 1018.2
20260831045524 58 307 1.0 1.0 0.00 0.00 0.00 87 1018.3
20260831045025 58 307 0.0 1.0 0.00 0.00 0.00 86 1018.3
20260831044608 58 309 0.0 2.0 0.00 0.00 0.00 86 1018.3
20260831044026 59 309 1.0 2.0 0.00 0.00 0.00 86 1018.3
20260831043525 59 296 0.0 1.0 0.00 0.00 0.00 85 1018.3
20260831043047 59 305 0.0 1.0 0.00 0.00 0.00 85 1018.3
20260831042526 59 306 1.0 1.0 0.00 0.00 0.00 84 1018.3
20260831042027 60 306 1.0 1.0 0.00 0.00 0.00 84 1018.4
20260831041611 60 306 0.0 1.0 0.00 0.00 0.00 84 1018.4
20260831041025 60 306 1.0 1.0 0.00 0.00 0.00 83 1018.5
20260831040525 60 306 1.0 1.0 0.00 0.00 0.00 83 1018.5
20260831040048 61 305 0.0 1.0 0.00 0.00 0.00 82 1018.4
20260831035525 61 306 0.0 1.0 0.00 0.00 0.00 82 1018.5
20260831035026 61 309 0.0 1.0 0.00 0.00 0.00 82 1018.4
20260831034549 61 309 0.0 1.0 0.00 0.00 0.00 82 1018.4
20260831034032 61 310 0.0 1.0 0.00 0.00 0.00 81 1018.4
20260831033524 61 309 0.0 1.0 0.00 0.00 0.00 81 1018.4
20260831033046 61 310 1.0 1.0 0.00 0.00 0.00 81 1018.4
20260831032530 61 0 0.0 0.0 0.00 0.00 0.00 80 1018.3
20260831032022 61 0 0.0 1.0 0.00 0.00 0.00 79 1018.3
20260831031549 62 274 0.0 1.0 0.00 0.00 0.00 79 1018.2
20260831031024 62 274 1.0 1.0 0.00 0.00 0.00 79 1018.2
20260831030525 62 275 1.0 2.0 0.00 0.00 0.00 79 1018.2
20260831030053 62 275 1.0 2.0 0.00 0.00 0.00 78 1018.2
20260831025525 62 275 1.0 2.0 0.00 0.00 0.00 78 1018.2
20260831025027 62 0 0.0 0.0 0.00 0.00 0.00 76 1018.2
20260831024548 62 0 0.0 1.0 0.00 0.00 0.00 76 1018.2
20260831024025 63 0 0.0 1.0 0.00 0.00 0.00 76 1018.2
20260831023525 63 0 0.0 2.0 0.00 0.00 0.00 77 1018.3
20260831023046 63 0 1.0 2.0 0.00 0.00 0.00 77 1018.3
20260831022525 63 0 0.0 2.0 0.00 0.00 0.00 77 1018.3
20260831022025 63 181 0.0 1.0 0.00 0.00 0.00 77 1018.5
20260831021549 63 212 1.0 2.0 0.00 0.00 0.00 77 1018.4
20260831021025 63 136 1.0 2.0 0.00 0.00 0.00 78 1018.4
20260831020526 63 134 1.0 2.0 0.00 0.00 0.00 77 1018.5
20260831020050 63 0 0.0 2.0 0.00 0.00 0.00 77 1018.4
20260831015525 64 124 0.0 2.0 0.00 0.00 0.00 76 1018.5
20260831015026 64 143 1.0 2.0 0.00 0.00 0.00 75 1018.5
20260831014547 64 125 0.0 2.0 0.00 0.00 0.00 75 1018.5
20260831014025 64 146 0.0 1.0 0.00 0.00 0.00 74 1018.6
20260831013526 64 166 1.0 2.0 0.00 0.00 0.00 74 1018.6
20260831013104 64 140 0.0 2.0 0.00 0.00 0.00 75 1018.6
20260831012526 64 0 0.0 4.0 0.00 0.00 0.00 75 1018.6
20260831012025 64 100 1.0 4.0 0.00 0.00 0.00 74 1018.6
20260831011551 65 152 2.0 4.0 0.00 0.00 0.00 73 1018.7
20260831011026 65 249 1.0 4.0 0.00 0.00 0.00 73 1018.8
20260831010526 65 174 1.0 5.0 0.00 0.00 0.00 73 1018.8
20260831010049 65 118 1.0 5.0 0.00 0.00 0.00 73 1018.9
20260831005528 65 221 1.0 5.0 0.00 0.00 0.00 72 1018.9
20260831005025 65 220 1.0 4.0 0.00 0.00 0.00 72 1018.8
20260831004548 65 122 1.0 5.0 0.00 0.00 0.00 72 1018.8
20260831004029 65 131 1.0 5.0 0.00 0.00 0.00 72 1018.8
20260831003525 66 148 1.0 5.0 0.00 0.00 0.00 73 1018.8
20260831003055 66 188 1.0 5.0 0.00 0.00 0.00 73 1018.9
20260831002524 65 175 1.0 5.0 0.00 0.00 0.00 73 1018.9
20260831002026 65 214 2.0 5.0 0.00 0.00 0.00 72 1019.0
20260831001549 65 174 2.0 5.0 0.00 0.00 0.00 71 1019.1
20260831001026 66 163 1.0 4.0 0.00 0.00 0.00 71 1019.1
20260831000525 66 143 1.0 4.0 0.00 0.00 0.00 71 1019.2
20260831000049 66 114 3.0 5.0 0.00 0.00 0.00 70 1019.2
20260830235525 66 171 2.0 5.0 0.00 0.00 0.00 70 1019.2
20260830235025 67 165 3.0 5.0 0.00 0.00 0.00 70 1019.2
20260830234549 66 106 1.0 5.0 0.00 0.00 0.00 71 1019.3
20260830234025 66 226 2.0 5.0 0.00 0.00 0.00 71 1019.3
20260830233526 66 165 3.0 5.0 0.00 0.00 0.00 70 1019.4
20260830233048 66 171 1.0 5.0 0.00 0.00 0.00 71 1019.4
20260830232526 66 207 2.0 6.0 0.00 0.00 0.00 70 1019.4
20260830232023 67 141 2.0 6.0 0.00 0.00 0.00 69 1019.4
20260830231559 67 176 1.0 5.0 0.00 0.00 0.00 69 1019.5
20260830231028 67 127 1.0 5.0 0.00 0.00 0.00 71 1019.5
20260830230529 67 148 3.0 5.0 0.00 0.00 0.00 70 1019.5
20260830230050 67 122 2.0 4.0 0.00 0.00 0.00 71 1019.4
20260830225526 67 150 1.0 4.0 0.00 0.00 0.00 71 1019.5
20260830225026 66 150 2.0 7.0 0.00 0.00 0.00 71 1019.5
20260830224558 66 210 2.0 7.0 0.00 0.00 0.00 71 1019.5
20260830224024 66 131 3.0 7.0 0.00 0.00 0.00 71 1019.6
20260830223527 67 226 3.0 7.0 0.00 0.00 0.00 71 1019.6
20260830223048 67 217 1.0 4.0 0.00 0.00 0.00 71 1019.5
20260830222523 67 146 2.0 5.0 0.00 0.00 0.00 71 1019.5
20260830222025 66 140 2.0 7.0 0.00 0.00 0.00 71 1019.6
20260830221550 66 131 3.0 7.0 0.00 0.00 0.00 71 1019.7
20260830221024 66 190 4.0 7.0 0.00 0.00 0.00 72 1019.7
20260830220525 66 197 3.0 7.0 0.00 0.00 0.00 73 1019.8
20260830220049 66 170 4.0 8.0 0.00 0.00 0.00 72 1019.8
20260830215525 65 232 4.0 8.0 0.00 0.00 0.00 73 1019.8
20260830215025 66 188 4.0 8.0 0.00 0.00 0.00 72 1019.8
20260830214552 66 202 4.0 7.0 0.00 0.00 0.00 72 1019.8
20260830214025 66 169 3.0 7.0 0.00 0.00 0.00 71 1019.8
20260830213525 66 192 3.0 7.0 0.00 0.00 0.00 73 1019.8
20260830213043 66 273 3.0 8.0 0.00 0.00 0.00 72 1019.8
20260830212525 66 167 4.0 9.0 0.00 0.00 0.00 71 1019.9
20260830212026 66 133 4.0 9.0 0.00 0.00 0.00 71 1019.9
20260830211550 67 122 4.0 9.0 0.00 0.00 0.00 71 1019.9
20260830211023 67 129 5.0 9.0 0.00 0.00 0.00 70 1020.0
20260830210525 67 195 4.0 8.0 0.00 0.00 0.00 70 1020.0
20260830210049 67 163 4.0 8.0 0.00 0.00 0.00 71 1019.8
20260830205528 67 199 3.0 8.0 0.00 0.00 0.00 73 1020.0
20260830205029 67 98 3.0 7.0 0.00 0.00 0.00 72 1019.8
20260830204547 67 98 3.0 6.0 0.00 0.00 0.00 73 1019.9
20260830204024 67 201 3.0 6.0 0.00 0.00 0.00 73 1019.8
20260830203526 66 165 3.0 6.0 0.00 0.00 0.00 74 1019.8
20260830203055 66 212 3.0 6.0 0.00 0.00 0.00 74 1019.9
20260830202525 65 182 2.0 6.0 0.00 0.00 0.00 76 1019.9
20260830202029 65 148 2.0 6.0 0.00 0.00 0.00 76 1019.9
20260830201549 65 197 3.0 5.0 0.00 0.00 0.00 76 1019.9
20260830201025 65 177 2.0 9.0 0.00 0.00 0.00 76 1019.9
20260830200526 65 138 3.0 9.0 0.00 0.00 0.00 75 1019.9
20260830200050 65 123 4.0 9.0 0.00 0.00 0.00 76 1020.0
20260830195529 65 216 3.0 8.0 0.00 0.00 0.00 76 1019.8
20260830195026 65 233 3.0 10.0 0.00 0.00 0.00 75 1019.8
20260830194546 65 147 3.0 10.0 0.00 0.00 0.00 76 1019.8
20260830194028 65 133 4.0 10.0 0.00 0.00 0.00 76 1019.8
20260830193523 64 41 3.0 12.0 0.00 0.00 0.00 77 1019.9
20260830193054 64 143 3.0 12.0 0.00 0.00 0.00 76 1020.0
20260830192525 65 127 5.0 12.0 0.00 0.00 0.00 75 1020.0
20260830192024 65 193 4.0 10.0 0.00 0.00 0.00 75 1020.0
20260830191553 65 153 3.0 8.0 0.00 0.00 0.00 77 1020.1
20260830191025 65 142 3.0 8.0 0.00 0.00 0.00 77 1020.1
20260830190619 64 162 4.0 8.0 0.00 0.00 0.00 77 1020.1
20260830190049 64 262 4.0 8.0 0.00 0.00 0.00 77 1020.1
20260830185527 64 175 3.0 8.0 0.00 0.00 0.00 78 1020.1
20260830185024 64 260 4.0 8.0 0.00 0.00 0.00 78 1020.1
20260830184554 64 148 4.0 10.0 0.00 0.00 0.00 78 1020.2
20260830184027 64 255 4.0 10.0 0.00 0.00 0.00 79 1020.2
20260830183525 64 166 4.0 8.0 0.00 0.00 0.00 79 1020.3
20260830183051 63 223 3.0 8.0 0.00 0.00 0.00 80 1020.1
20260830182528 63 117 4.0 9.0 0.00 0.00 0.00 80 1020.1
20260830182028 63 236 3.0 9.0 0.00 0.00 0.00 80 1020.2
20260830181549 63 131 4.0 9.0 0.00 0.00 0.00 80 1020.3
20260830181025 63 143 4.0 9.0 0.00 0.00 0.00 79 1020.1
20260830180524 63 206 4.0 9.0 0.00 0.00 0.00 80 1020.1
20260830180056 63 168 4.0 9.0 0.00 0.00 0.00 79 1020.1
20260830175524 63 146 4.0 9.0 0.00 0.00 0.00 79 1020.1
20260830175025 63 131 4.0 8.0 0.00 0.00 0.00 79 1020.0
20260830174554 63 176 4.0 10.0 0.00 0.00 0.00 80 1020.1
20260830174026 63 122 4.0 10.0 0.00 0.00 0.00 79 1020.2
20260830173525 63 114 4.0 9.0 0.00 0.00 0.00 79 1020.1
20260830173056 63 129 5.0 9.0 0.00 0.00 0.00 78 1020.0
20260830172524 64 205 4.0 8.0 0.00 0.00 0.00 78 1020.0
20260830172026 64 110 3.0 9.0 0.00 0.00 0.00 80 1020.0
20260830171549 63 147 4.0 9.0 0.00 0.00 0.00 79 1020.0
20260830171027 63 221 3.0 9.0 0.00 0.00 0.00 79 1019.9
20260830170526 63 108 4.0 9.0 0.00 0.00 0.00 80 1020.0
20260830170050 63 162 4.0 9.0 0.00 0.00 0.00 80 1019.9
20260830165528 63 149 4.0 9.0 0.00 0.00 0.00 80 1019.8
20260830165027 63 202 3.0 8.0 0.00 0.00 0.00 80 1019.8
20260830164546 63 185 4.0 10.0 0.00 0.00 0.00 79 1019.8
20260830164028 63 115 4.0 10.0 0.00 0.00 0.00 81 1019.8
20260830163526 63 128 5.0 10.0 0.00 0.00 0.00 81 1019.8
20260830163048 62 115 4.0 10.0 0.00 0.00 0.00 82 1019.9
20260830162526 62 210 3.0 10.0 0.00 0.00 0.00 84 1019.9
20260830162025 61 139 4.0 7.0 0.00 0.00 0.00 85 1019.9
20260830161548 60 146 3.0 10.0 0.00 0.00 0.00 85 1019.8
20260830161024 60 155 3.0 10.0 0.00 0.00 0.00 86 1019.9
20260830160524 59 86 3.0 9.0 0.00 0.00 0.00 87 1019.8
20260830160048 59 140 3.0 9.0 0.00 0.00 0.00 88 1019.9
20260830155525 59 159 4.0 8.0 0.00 0.00 0.00 88 1019.9
20260830155107 59 276 3.0 8.0 0.00 0.00 0.00 88 1019.8
20260830154549 58 208 4.0 8.0 0.00 0.00 0.00 88 1019.9
20260830154022 59 165 3.0 7.0 0.00 0.00 0.00 88 1019.9
20260830153526 59 239 4.0 9.0 0.00 0.00 0.00 88 1019.7
20260830153050 59 158 4.0 9.0 0.00 0.00 0.00 87 1019.7
20260830152525 59 165 3.0 8.0 0.00 0.00 0.00 88 1019.7
20260830152025 59 151 3.0 6.0 0.00 0.00 0.00 88 1019.6
20260830151549 59 147 3.0 6.0 0.00 0.00 0.00 88 1019.6
20260830151029 58 138 2.0 6.0 0.00 0.00 0.00 88 1019.6
20260830150526 58 142 3.0 8.0 0.00 0.00 0.00 88 1019.7
20260830150049 58 203 3.0 8.0 0.00 0.00 0.00 89 1019.6
20260830145526 58 149 4.0 8.0 0.00 0.00 0.00 89 1019.6
20260830145024 58 136 3.0 8.0 0.00 0.00 0.00 89 1019.5
20260830144556 58 191 4.0 8.0 0.00 0.00 0.00 89 1019.5
20260830144025 58 135 4.0 8.0 0.00 0.00 0.00 90 1019.6
20260830143526 57 143 3.0 7.0 0.00 0.00 0.00 89 1019.4
20260830143053 57 133 4.0 7.0 0.00 0.00 0.00 89 1019.4
20260830142526 57 166 2.0 7.0 0.00 0.00 0.00 89 1019.5
20260830142026 57 129 3.0 7.0 0.00 0.00 0.00 89 1019.3
20260830141555 57 153 1.0 6.0 0.00 0.00 0.00 89 1019.3
20260830141024 57 141 2.0 5.0 0.00 0.00 0.00 89 1019.2
20260830140525 57 146 3.0 6.0 0.00 0.00 0.00 89 1019.1
20260830140051 57 118 1.0 8.0 0.00 0.00 0.00 88 1019.1
20260830135530 57 128 4.0 8.0 0.00 0.00 0.00 88 1019.0
20260830135025 57 154 3.0 7.0 0.00 0.00 0.00 88 1019.0
20260830134554 57 148 3.0 6.0 0.00 0.00 0.00 89 1018.9
20260830134026 57 144 3.0 7.0 0.00 0.00 0.00 88 1018.9
20260830133526 57 155 5.0 7.0 0.00 0.00 0.00 89 1018.8
20260830133103 57 186 3.0 6.0 0.00 0.00 0.00 89 1018.8
20260830132528 57 141 3.0 7.0 0.00 0.00 0.00 89 1018.7
20260830132025 57 104 2.0 7.0 0.00 0.00 0.00 89 1018.7
20260830131548 57 131 3.0 7.0 0.00 0.00 0.00 88 1018.8
20260830131027 57 138 3.0 7.0 0.00 0.00 0.00 88 1018.8
20260830130526 57 141 2.0 7.0 0.00 0.00 0.00 88 1018.8
20260830130048 57 120 2.0 5.0 0.00 0.00 0.00 87 1018.8
20260830125526 57 132 2.0 6.0 0.00 0.00 0.00 87 1018.8
20260830125025 57 147 2.0 6.0 0.00 0.00 0.00 87 1018.7
20260830124619 57 172 2.0 6.0 0.00 0.00 0.00 87 1018.7
20260830124026 57 125 3.0 6.0 0.00 0.00 0.00 87 1018.7
20260830123527 57 123 3.0 6.0 0.00 0.00 0.00 88 1018.7